Météo par heure à Aalen

Ce jour, 18 Avril, Dimanche

Heure Température Précipitation Vent Pression Humidité
00:00 +3°C° 0 mm 1 m/s 722 mmHg 96%
01:00 +3°C° 0 mm 1 m/s 722 mmHg 96%
02:00 +3°C° 0 mm 1 m/s 722 mmHg 97%
03:00 +3°C° 0 mm 1 m/s 722 mmHg 97%
04:00 +2°C° 0 mm 0 m/s 722 mmHg 97%
05:00 +2°C° 0 mm 0 m/s 722 mmHg 98%
06:00 +3°C° 0 mm 1 m/s 722 mmHg 98%
07:00 +3°C° 0 mm 1 m/s 722 mmHg 98%
08:00 +3°C° 0 mm 1 m/s 722 mmHg 97%
09:00 +3°C° 0 mm 0 m/s 722 mmHg 95%
10:00 +3°C° 0 mm 0 m/s 722 mmHg 93%
11:00 +4°C° 0 mm 1 m/s 722 mmHg 91%
12:00 +5°C° 0 mm 1 m/s 722 mmHg 88%
13:00 +5°C° 0 mm 1 m/s 722 mmHg 86%
14:00 +6°C° 0 mm 1 m/s 722 mmHg 84%
15:00 +6°C° 0 mm 1 m/s 722 mmHg 81%
16:00 +7°C° 0 mm 1 m/s 722 mmHg 79%
17:00 +6°C° 0 mm 1 m/s 722 mmHg 82%
18:00 +6°C° 0 mm 1 m/s 722 mmHg 86%
19:00 +5°C° 0 mm 1 m/s 722 mmHg 90%
20:00 +5°C° 0 mm 1 m/s 722 mmHg 91%
21:00 +4°C° 0 mm 1 m/s 722 mmHg 93%
22:00 +4°C° 0 mm 1 m/s 723 mmHg 95%
23:00 +3°C° 0 mm 1 m/s 722 mmHg 95%

Demain, 19 Avril, Lundi

Heure Température Précipitation Vent Pression Humidité
00:00 +3°C° 0 mm 1 m/s 722 mmHg 95%
01:00 +3°C° 0 mm 1 m/s 722 mmHg 95%
02:00 +3°C° 0 mm 1 m/s 722 mmHg 94%
03:00 +2°C° 0 mm 1 m/s 722 mmHg 94%
04:00 +2°C° 0 mm 1 m/s 722 mmHg 94%
05:00 +3°C° 0 mm 1 m/s 722 mmHg 93%
06:00 +4°C° 0 mm 1 m/s 722 mmHg 91%
07:00 +3°C° 0 mm 0 m/s 722 mmHg 90%
08:00 +5°C° 0.1 mm 1 m/s 722 mmHg 86%
09:00 +7°C° 0.1 mm 1 m/s 722 mmHg 83%
10:00 +8°C° 0.1 mm 1 m/s 722 mmHg 79%
11:00 +8°C° 0.1 mm 1 m/s 722 mmHg 79%
12:00 +7°C° 0.1 mm 2 m/s 722 mmHg 80%
13:00 +7°C° 0.1 mm 2 m/s 722 mmHg 80%
14:00 +7°C° 0 mm 2 m/s 721 mmHg 78%
15:00 +8°C° 0 mm 2 m/s 721 mmHg 77%
16:00 +8°C° 0 mm 2 m/s 721 mmHg 75%
17:00 +8°C° 0 mm 2 m/s 721 mmHg 78%
18:00 +8°C° 0 mm 1 m/s 721 mmHg 81%
19:00 +7°C° 0 mm 1 m/s 721 mmHg 84%
20:00 +6°C° 0 mm 1 m/s 721 mmHg 86%
21:00 +6°C° 0 mm 1 m/s 721 mmHg 87%
22:00 +4°C° 0 mm 0 m/s 721 mmHg 89%
23:00 +4°C° 0 mm 0 m/s 721 mmHg 90%

Après-demain, 20 Avril, Mardi

Heure Température Précipitation Vent Pression Humidité
00:00 +3°C° 0 mm 0 m/s 721 mmHg 91%
01:00 +3°C° 0 mm 0 m/s 721 mmHg 92%
02:00 +3°C° 0 mm 0 m/s 720 mmHg 91%
03:00 +3°C° 0 mm 0 m/s 720 mmHg 91%
04:00 +4°C° 0 mm 1 m/s 720 mmHg 91%
05:00 +5°C° 0 mm 1 m/s 720 mmHg 89%
06:00 +5°C° 0 mm 1 m/s 720 mmHg 88%
07:00 +5°C° 0 mm 0 m/s 720 mmHg 86%
08:00 +6°C° 0 mm 0 m/s 721 mmHg 83%
09:00 +6°C° 0 mm 0 m/s 721 mmHg 80%
10:00 +7°C° 0 mm 0 m/s 721 mmHg 77%
11:00 +10°C° 0 mm 1 m/s 721 mmHg 72%
12:00 +11°C° 0 mm 1 m/s 720 mmHg 66%
13:00 +12°C° 0 mm 1 m/s 720 mmHg 60%
14:00 +12°C° 0 mm 1 m/s 720 mmHg 60%
15:00 +13°C° 0 mm 1 m/s 720 mmHg 60%
16:00 +13°C° 0 mm 1 m/s 719 mmHg 59%
17:00 +12°C° 0 mm 1 m/s 719 mmHg 66%
18:00 +10°C° 0 mm 1 m/s 720 mmHg 72%
19:00 +9°C° 0 mm 1 m/s 720 mmHg 78%
20:00 +8°C° 0 mm 1 m/s 720 mmHg 79%
21:00 +7°C° 0 mm 0 m/s 720 mmHg 81%
22:00 +6°C° 0 mm 0 m/s 720 mmHg 83%
23:00 +5°C° 0 mm 0 m/s 720 mmHg 84%

21 Avril, Mercredi

Heure Température Précipitation Vent Pression Humidité
00:00 +6°C° 0 mm 1 m/s 720 mmHg 85%
01:00 +5°C° 0 mm 1 m/s 720 mmHg 87%
02:00 +5°C° 0 mm 1 m/s 720 mmHg 87%
03:00 +5°C° 0 mm 1 m/s 720 mmHg 87%
04:00 +5°C° 0 mm 1 m/s 720 mmHg 88%
05:00 +6°C° 0 mm 1 m/s 720 mmHg 85%
06:00 +7°C° 0 mm 1 m/s 721 mmHg 83%
07:00 +7°C° 0 mm 1 m/s 721 mmHg 80%
08:00 +9°C° 0 mm 1 m/s 721 mmHg 74%
09:00 +11°C° 0 mm 1 m/s 721 mmHg 68%
10:00 +13°C° 0 mm 1 m/s 721 mmHg 62%
11:00 +13°C° 0.2 mm 1 m/s 721 mmHg 59%
12:00 +14°C° 0.2 mm 1 m/s 721 mmHg 56%
13:00 +15°C° 0.2 mm 2 m/s 721 mmHg 53%
14:00 +15°C° 0.3 mm 2 m/s 720 mmHg 55%
15:00 +14°C° 0.3 mm 3 m/s 720 mmHg 57%
16:00 +14°C° 0.3 mm 3 m/s 720 mmHg 58%
17:00 +12°C° 0.1 mm 3 m/s 720 mmHg 67%
18:00 +10°C° 0.1 mm 2 m/s 720 mmHg 76%
19:00 +9°C° 0.1 mm 2 m/s 721 mmHg 85%
20:00 +9°C° 0 mm 1 m/s 721 mmHg 87%
21:00 +8°C° 0 mm 1 m/s 721 mmHg 88%
22:00 +7°C° 0 mm 1 m/s 722 mmHg 90%
23:00 +6°C° 0 mm 1 m/s 722 mmHg 91%

22 Avril, Jeudi

Heure Température Précipitation Vent Pression Humidité
00:00 +6°C° 0 mm 1 m/s 722 mmHg 92%
01:00 +6°C° 0 mm 1 m/s 722 mmHg 94%
02:00 +6°C° 0 mm 1 m/s 723 mmHg 94%
03:00 +6°C° 0 mm 1 m/s 723 mmHg 94%
04:00 +6°C° 0 mm 1 m/s 723 mmHg 95%
05:00 +6°C° 0 mm 1 m/s 723 mmHg 93%
06:00 +6°C° 0 mm 1 m/s 723 mmHg 91%
07:00 +5°C° 0 mm 2 m/s 724 mmHg 89%
08:00 +6°C° 0 mm 2 m/s 724 mmHg 81%
09:00 +7°C° 0 mm 3 m/s 724 mmHg 73%
10:00 +8°C° 0 mm 3 m/s 724 mmHg 65%
11:00 +9°C° 0 mm 3 m/s 724 mmHg 60%
12:00 +10°C° 0 mm 4 m/s 724 mmHg 55%
13:00 +10°C° 0 mm 4 m/s 724 mmHg 50%
14:00 +10°C° 0 mm 4 m/s 724 mmHg 48%
15:00 +10°C° 0 mm 4 m/s 724 mmHg 45%
16:00 +10°C° 0 mm 4 m/s 724 mmHg 43%
17:00 +9°C° 0 mm 3 m/s 724 mmHg 51%
18:00 +7°C° 0 mm 2 m/s 724 mmHg 59%
19:00 +6°C° 0 mm 1 m/s 725 mmHg 67%
20:00 +5°C° 0 mm 1 m/s 725 mmHg 68%
21:00 +4°C° 0 mm 1 m/s 725 mmHg 70%
22:00 +4°C° 0 mm 1 m/s 726 mmHg 71%
23:00 +3°C° 0 mm 1 m/s 726 mmHg 74%

23 Avril, Vendredi

Heure Température Précipitation Vent Pression Humidité
00:00 +2°C° 0 mm 1 m/s 726 mmHg 78%
01:00 +2°C° 0 mm 1 m/s 726 mmHg 81%
02:00 +2°C° 0 mm 1 m/s 726 mmHg 83%
03:00 +1°C° 0 mm 1 m/s 726 mmHg 84%
04:00 +1°C° 0 mm 1 m/s 726 mmHg 86%
05:00 +2°C° 0 mm 1 m/s 726 mmHg 82%
06:00 +3°C° 0 mm 1 m/s 726 mmHg 78%
07:00 +3°C° 0 mm 2 m/s 727 mmHg 74%
08:00 +5°C° 0 mm 2 m/s 727 mmHg 68%
09:00 +5°C° 0 mm 3 m/s 727 mmHg 61%
10:00 +8°C° 0 mm 3 m/s 727 mmHg 55%
11:00 +8°C° 0 mm 4 m/s 727 mmHg 53%
12:00 +10°C° 0 mm 4 m/s 727 mmHg 50%
13:00 +11°C° 0 mm 4 m/s 726 mmHg 48%
14:00 +11°C° 0 mm 4 m/s 726 mmHg 49%
15:00 +10°C° 0 mm 5 m/s 726 mmHg 49%
16:00 +10°C° 0 mm 5 m/s 726 mmHg 49%
17:00 +8°C° 0 mm 4 m/s 726 mmHg 56%
18:00 +8°C° 0 mm 3 m/s 726 mmHg 62%
19:00 +5°C° 0 mm 3 m/s 726 mmHg 69%
20:00 +4°C° 0 mm 3 m/s 726 mmHg 71%
21:00 +3°C° 0 mm 3 m/s 726 mmHg 72%
22:00 +1°C° 0 mm 4 m/s 726 mmHg 74%
23:00 0°C° 0 mm 4 m/s 726 mmHg 77%
Voir plus

Nous avons besoin de votre consentement

Meteoprog et ses fournisseurs de services peuvent stocker et accéder à des données personnelles telles que des cookies, des identifiants d'appareils ou d'autres technologies similaires sur votre appareil et traiter ces données pour personnaliser le contenu et les publicités, ainsi que pour fournir des fonctionnalités de médias sociaux et analyser le trafic.

  • Stocker et/ou accéder à des informations sur votre appareil

    Des cookies, des identifiants d'appareils ou d'autres informations peuvent être stockés ou accessibles sur votre appareil aux fins indiquées ci-dessus.

  • Annonces et contenus personnalisés, mesure des annonces et des contenus, connaissance de l'audience et développement de produits

    Les annonces et le contenu peuvent être personnalisés en fonction d'un profil. D'autres données peuvent être ajoutées pour mieux personnaliser les annonces et le contenu. Les performances des publicités et du contenu peuvent être mesurées. Il est possible d'obtenir des informations sur le public qui a vu les publicités et le contenu. Ces données peuvent être utilisées pour développer ou améliorer l'expérience de l'utilisateur, les systèmes et les logiciels.

En cliquant sur "J'accepte", vous autorisez l'utilisation de cookies, des identifiants d'appareils, des balises web ou d'autres technologies similaires. Vos paramètres peuvent être modifiés dans le navigateur de votre appareil.

Dans certains cas, des intérêts légitimes peuvent être invoqués plutôt qu'un consentement. Vous pouvez en savoir plus à ce sujet dans notre Politique de confidentialité et de cookies.